TimeEDT,TemperatureF,Dew PointF,Humidity,Sea Level PressureIn,VisibilityMPH,Wind Direction,Wind SpeedMPH,Gust SpeedMPH,PrecipitationIn,Events,Conditions,WindDirDegrees,DateUTC
12:09 AM,70.0,68.0,93,29.76,3.0,West,12.7,23.0,0.04,Rain,Heavy Rain,280,2013-09-22 04:09:00
12:16 AM,69.1,69.1,100,29.75,2.0,WNW,12.7,21.9,0.10,Rain,Heavy Rain,300,2013-09-22 04:16:00
12:21 AM,68.0,68.0,100,29.75,1.8,WNW,13.8,21.9,0.16,Rain,Heavy Rain,300,2013-09-22 04:21:00
12:26 AM,68.0,68.0,100,29.75,2.5,WNW,10.4,-,0.23,Rain,Rain,290,2013-09-22 04:26:00
12:30 AM,69.1,-9999,N/A,29.75,4.0,WNW,12.7,-,0.24,Rain,Light Rain,290,2013-09-22 04:30:00
12:38 AM,69.1,-9999,N/A,29.75,6.0,West,9.2,-,0.24,Rain,Light Rain,280,2013-09-22 04:38:00
12:54 AM,69.1,-9999,N/A,29.74,5.0,West,6.9,-,0.27,Rain,Light Rain,280,2013-09-22 04:54:00
1:54 AM,69.1,-9999,N/A,29.73,10.0,West,8.1,-,0.03,Rain,Light Rain,270,2013-09-22 05:54:00
2:46 AM,69.1,-9999,N/A,29.73,10.0,West,6.9,-,0.00,Rain,Light Rain,260,2013-09-22 06:46:00
2:54 AM,69.1,-9999,N/A,29.72,10.0,West,6.9,-,0.01,Rain,Light Rain,270,2013-09-22 06:54:00
3:33 AM,69.1,-9999,N/A,29.72,10.0,West,6.9,-,0.00,Rain,Light Rain,280,2013-09-22 07:33:00
3:40 AM,69.1,-9999,N/A,29.72,10.0,West,5.8,-,0.00,Rain,Light Rain,280,2013-09-22 07:40:00
3:54 AM,69.1,-9999,N/A,29.71,10.0,West,5.8,-,0.00,,Overcast,280,2013-09-22 07:54:00
4:10 AM,69.1,-9999,N/A,29.73,9.0,WNW,5.8,-,N/A,,Overcast,300,2013-09-22 08:10:00
4:30 AM,68.0,-9999,N/A,29.73,10.0,NNW,11.5,-,0.00,,Overcast,340,2013-09-22 08:30:00
4:54 AM,66.9,-9999,N/A,29.73,10.0,NNW,8.1,-,0.01,Rain,Light Rain,330,2013-09-22 08:54:00
5:54 AM,66.9,-9999,N/A,29.74,10.0,North,4.6,-,0.00,,Overcast,360,2013-09-22 09:54:00
6:54 AM,66.0,-9999,N/A,29.76,10.0,North,6.9,-,0.00,,Overcast,350,2013-09-22 10:54:00
7:54 AM,66.9,66.0,97,29.77,10.0,North,6.9,-,N/A,,Overcast,360,2013-09-22 11:54:00
8:02 AM,66.9,64.9,93,29.78,10.0,North,6.9,-,N/A,,Overcast,360,2013-09-22 12:02:00
8:19 AM,66.9,64.9,93,29.79,10.0,North,8.1,-,N/A,,Overcast,360,2013-09-22 12:19:00
8:43 AM,66.9,64.0,90,29.79,10.0,North,5.8,-,N/A,,Overcast,360,2013-09-22 12:43:00
8:50 AM,66.2,62.6,88,29.80,10.0,North,8.1,-,N/A,,Overcast,360,2013-09-22 12:50:00
8:54 AM,66.9,63.0,87,29.79,10.0,North,6.9,-,N/A,,Overcast,360,2013-09-22 12:54:00
8:56 AM,66.9,63.0,87,29.80,10.0,North,6.9,-,N/A,,Overcast,350,2013-09-22 12:56:00
9:15 AM,66.9,62.1,84,29.80,10.0,North,11.5,-,N/A,,Overcast,10,2013-09-22 13:15:00
9:54 AM,68.0,62.1,81,29.81,10.0,North,8.1,-,N/A,,Overcast,360,2013-09-22 13:54:00
10:54 AM,71.1,61.0,70,29.80,10.0,NNE,10.4,-,N/A,,Mostly Cloudy,20,2013-09-22 14:54:00
11:03 AM,72.0,62.1,71,29.80,10.0,North,10.4,-,N/A,,Scattered Clouds,10,2013-09-22 15:03:00
11:54 AM,73.9,59.0,59,29.81,10.0,NNE,6.9,-,N/A,,Scattered Clouds,30,2013-09-22 15:54:00
12:54 PM,75.9,57.9,54,29.80,10.0,NNE,6.9,-,N/A,,Mostly Cloudy,20,2013-09-22 16:54:00
1:54 PM,78.1,55.0,45,29.78,10.0,North,8.1,18.4,N/A,,Partly Cloudy,10,2013-09-22 17:54:00
2:54 PM,75.9,55.0,48,29.78,10.0,North,6.9,-,N/A,,Scattered Clouds,360,2013-09-22 18:54:00
3:54 PM,77.0,55.0,47,29.78,10.0,North,6.9,-,N/A,,Mostly Cloudy,360,2013-09-22 19:54:00
4:54 PM,75.0,54.0,48,29.79,10.0,North,5.8,-,N/A,,Overcast,350,2013-09-22 20:54:00
5:54 PM,75.0,52.0,44,29.81,10.0,North,6.9,-,N/A,,Mostly Cloudy,360,2013-09-22 21:54:00
6:54 PM,70.0,51.1,51,29.83,10.0,North,8.1,-,N/A,,Clear,350,2013-09-22 22:54:00
7:54 PM,66.0,51.1,59,29.85,10.0,North,4.6,-,N/A,,Clear,10,2013-09-22 23:54:00
8:54 PM,63.0,53.1,70,29.87,10.0,North,5.8,-,N/A,,Clear,10,2013-09-23 00:54:00
9:54 PM,62.1,52.0,70,29.88,10.0,North,5.8,-,N/A,,Clear,10,2013-09-23 01:54:00
10:54 PM,60.1,52.0,75,29.89,10.0,North,6.9,-,N/A,,Clear,10,2013-09-23 02:54:00
11:54 PM,57.9,51.1,78,29.90,10.0,North,8.1,-,N/A,,Clear,360,2013-09-23 03:54:00